Theta_e
299 302 304 303 302 301 301 300 301 300 299 299 299 300 300 299 301 302 303 302 299 303 308 306 307 306 305 305 302 299 301 303 303 304 304 305 306 305 305 306 307 308 308 309 309 310 313 315 316 317 319 319 318 317 317 320 321 321 323 324 325 327 328 328 327 326 326 324 324 323 320 319 322 324 325 326 327 327 326 326 327 327 328 328 328 327
301 303 302 302 302 301 300 300 300 300 299 300 299 299 300 300 301 300 299 301 300 301 304 304 305 305 304 304 301 298 301 302 301 302 303 304 304 303 303 303 305 306 307 308 309 310 311 312 314 315 316 317 319 318 317 320 321 322 322 322 322 323 325 326 326 326 326 325 324 324 321 319 321 325 325 326 327 327 327 327 326 326 326 327 328 327
303 303 301 301 300 299 299 300 301 300 300 301 300 299 300 301 301 301 300 301 301 299 301 304 303 302 302 302 300 298 299 300 299 300 301 302 302 302 302 301 302 304 305 307 308 309 310 311 312 313 314 315 317 318 319 320 321 321 321 321 321 320 321 323 325 325 325 326 325 324 323 321 322 324 325 325 326 327 327 327 327 326 326 327 328 327
302 302 301 298 297 299 301 302 303 302 301 301 300 300 300 300 299 301 303 301 299 298 300 302 300 300 300 299 300 298 296 297 299 299 300 301 302 302 302 302 302 302 303 305 307 308 309 310 311 311 313 314 315 316 319 321 321 321 320 322 322 320 320 322 324 325 325 325 325 325 325 323 323 323 324 325 325 326 327 327 327 326 326 327 327 326
301 300 297 296 298 300 300 302 303 303 302 301 301 300 300 300 299 299 300 299 300 299 298 300 301 303 303 302 304 300 295 296 297 297 298 299 300 301 302 303 302 302 302 302 304 306 308 310 310 311 312 312 313 315 317 319 321 321 321 321 321 321 321 321 322 324 325 325 325 325 325 324 324 324 324 325 326 327 327 327 327 326 327 327 326 325
301 298 296 298 300 301 300 302 303 302 302 302 301 300 299 300 300 300 300 299 302 303 300 299 301 306 307 305 304 301 299 299 298 298 299 299 300 300 300 302 301 301 302 302 302 304 307 309 310 311 311 311 312 314 316 318 319 320 321 321 321 321 320 320 321 322 323 323 324 324 325 325 324 324 324 325 326 327 327 327 327 326 326 326 326 325
299 297 298 300 300 300 301 301 301 301 302 301 300 300 300 300 301 302 302 300 302 303 300 299 300 302 302 301 301 300 300 300 299 299 298 298 299 300 300 301 301 301 301 302 302 302 304 307 309 310 311 311 312 313 315 317 318 319 320 321 321 321 320 320 321 321 320 320 320 320 322 324 325 324 324 325 326 326 327 326 326 326 326 326 326 325
299 300 300 301 301 301 301 300 300 300 301 301 300 300 301 301 301 302 301 300 301 300 298 298 299 300 300 300 300 300 300 301 300 300 297 296 297 299 300 300 301 302 301 302 302 302 302 303 306 308 309 310 311 313 314 315 318 318 319 320 321 321 320 320 320 320 320 320 319 318 318 319 321 321 321 323 325 326 326 326 326 326 326 326 325 324
297 300 301 300 301 301 300 301 300 299 300 301 299 299 300 300 300 301 300 301 299 298 299 299 298 299 300 301 300 298 299 301 301 301 299 296 296 297 298 299 300 301 301 302 302 302 302 302 303 306 308 309 310 312 313 314 316 317 318 319 320 321 320 320 320 320 320 320 319 319 318 318 319 320 320 322 324 325 325 325 325 325 325 325 324 324
297 299 298 298 301 301 301 301 300 300 300 298 298 298 298 298 297 297 299 301 300 299 300 301 299 299 300 300 299 299 300 301 301 301 299 297 296 297 298 298 299 299 300 300 301 302 302 302 302 304 306 309 310 311 312 313 314 316 317 318 319 320 320 320 320 319 319 318 318 319 319 319 320 321 321 321 322 323 324 324 324 324 324 324 323 323
295 296 296 298 300 299 299 299 297 298 298 297 299 300 300 298 295 296 298 299 301 303 301 299 299 298 300 302 302 302 304 305 303 301 301 298 296 297 298 299 299 299 299 299 300 300 301 301 301 302 304 306 309 310 312 313 313 314 315 317 318 319 320 320 320 319 318 318 317 318 318 319 320 320 319 320 321 322 322 322 323 322 323 322 321 321
295 297 297 297 298 298 298 298 297 296 296 298 301 301 300 299 297 298 299 298 302 306 301 297 298 297 299 302 301 302 303 302 301 301 303 301 297 297 298 299 299 299 299 299 299 299 299 300 300 301 302 303 307 309 311 312 313 314 314 316 317 318 319 319 319 319 319 318 318 318 318 318 319 318 317 317 318 319 319 321 322 322 321 320 319 318
300 298 296 296 297 298 299 300 299 297 298 300 302 301 301 301 300 301 302 299 301 303 297 296 298 297 298 299 298 299 299 299 298 298 299 299 297 297 298 299 299 300 300 299 299 299 299 299 299 300 300 301 304 307 309 311 313 313 314 315 316 317 318 319 319 318 319 319 318 318 318 317 317 317 317 316 317 317 318 319 320 320 321 320 319 318
306 299 294 297 299 297 299 301 301 299 299 300 301 302 302 302 302 303 303 298 297 300 296 294 297 297 300 301 300 300 299 298 298 297 297 297 297 298 299 300 300 300 300 300 300 299 298 299 299 299 299 300 302 304 307 310 312 313 314 314 315 316 317 318 318 318 318 318 318 317 317 316 317 317 317 316 316 316 316 317 318 318 319 319 318 317
306 304 298 298 299 298 299 301 302 301 300 299 299 299 301 302 300 301 302 299 298 300 297 295 298 301 303 304 304 302 299 298 298 298 299 298 298 300 300 300 300 300 301 301 301 301 300 299 299 299 299 300 300 302 304 308 310 313 313 314 315 315 316 317 317 317 317 317 317 316 315 315 315 316 315 315 315 315 315 314 315 316 316 316 315 314
301 304 299 296 296 298 299 298 298 301 301 298 296 298 301 301 300 299 300 298 298 298 297 297 299 302 302 302 301 300 299 299 299 299 298 298 299 299 299 300 301 302 303 303 303 303 302 301 299 299 299 299 300 301 303 305 309 312 313 314 314 315 316 315 316 316 316 316 316 315 315 314 315 314 313 314 314 314 313 312 313 313 313 313 313 311
302 302 298 296 296 297 298 298 297 299 301 298 297 301 300 298 300 301 299 297 297 299 300 300 301 301 300 301 302 302 302 301 300 300 299 298 299 299 298 300 302 304 304 304 304 304 304 302 300 299 299 299 300 300 301 303 307 310 312 313 314 314 315 314 314 314 314 314 315 315 314 314 315 315 313 313 313 312 311 311 311 311 311 311 310 309
302 303 300 297 299 297 295 297 297 297 299 300 301 302 299 297 299 301 300 300 300 301 301 301 302 301 300 303 304 304 303 302 302 304 303 300 299 299 299 300 302 303 304 304 305 305 305 304 301 299 299 299 299 300 300 301 305 308 311 312 313 315 315 314 313 313 313 313 314 315 314 314 315 314 314 313 312 310 310 310 309 309 309 309 308 307
299 304 302 296 298 299 296 298 300 298 297 299 301 299 299 300 300 300 301 301 302 301 301 302 302 301 301 303 304 303 302 302 303 305 305 303 300 299 300 301 302 303 303 303 304 304 304 304 302 300 299 299 299 299 300 301 303 306 309 311 312 313 314 313 313 313 312 313 314 314 314 314 314 313 313 311 310 309 309 309 309 308 308 307 306 304
298 302 304 298 297 300 299 301 303 301 298 299 300 300 301 302 301 301 301 301 302 302 302 302 302 302 303 304 303 303 302 302 303 303 304 303 300 299 301 302 303 303 303 303 304 304 304 304 302 300 299 299 299 299 299 300 302 304 307 309 310 311 311 311 312 312 312 312 313 314 313 313 313 312 311 310 309 309 308 308 308 307 306 305 304 303
299 301 303 301 299 301 301 302 303 303 300 299 300 300 300 301 301 302 302 302 302 301 302 302 303 303 302 303 303 303 302 303 304 305 305 303 301 302 303 303 303 303 302 302 302 302 302 302 301 299 298 298 298 299 299 300 301 303 305 308 309 310 311 310 311 311 311 312 312 313 313 313 312 311 311 310 309 308 308 307 306 306 305 304 303 302
301 300 301 302 301 302 302 302 301 302 301 301 300 300 300 300 301 303 303 302 301 301 302 303 303 303 303 305 306 305 305 306 306 306 306 304 301 302 302 301 301 300 300 300 300 300 301 300 299 298 297 298 298 298 299 299 300 302 304 307 308 310 311 310 310 310 311 312 312 312 312 311 311 311 310 309 308 307 307 306 305 304 302 302 301 301
299 299 300 301 300 301 301 301 299 299 300 300 301 301 300 299 301 302 302 302 302 302 302 303 303 303 304 307 307 306 306 305 303 303 303 302 301 302 301 300 300 299 299 299 298 298 298 298 298 297 297 297 297 298 298 299 300 301 303 306 308 310 310 310 310 310 311 311 311 311 311 311 311 310 310 309 308 307 306 304 303 302 301 300 300 298
299 300 300 300 301 300 300 299 298 297 299 300 301 301 300 299 301 301 302 302 303 303 303 303 303 303 304 306 307 307 305 301 300 301 301 301 301 301 301 300 299 299 299 298 297 297 297 297 297 297 297 297 297 297 297 298 300 301 302 305 307 309 309 309 309 310 310 310 310 310 310 310 310 310 310 308 308 307 305 303 302 301 299 298 297 298
300 302 301 301 302 302 302 302 301 300 300 300 301 301 300 300 300 301 301 302 302 303 303 304 304 303 303 305 306 306 304 301 301 302 301 300 300 300 300 299 299 299 298 297 296 296 296 296 296 296 296 296 296 296 296 297 299 300 302 304 306 308 308 308 309 309 309 309 309 309 310 310 311 311 310 308 307 306 304 302 300 299 298 296 296 299
301 301 302 303 303 302 302 302 302 302 301 301 302 302 301 301 301 301 302 302 303 303 302 303 304 302 302 303 303 302 302 302 301 301 300 300 300 300 300 299 299 298 297 297 296 296 296 296 296 296 296 296 296 296 295 296 298 300 302 304 306 307 307 308 309 309 309 309 309 309 309 310 311 311 310 308 306 305 303 301 299 297 296 296 297 301
301 300 301 303 302 300 300 300 300 301 301 301 302 302 301 301 301 301 302 302 303 303 302 302 302 302 302 301 301 301 302 302 301 300 299 299 299 300 299 298 299 298 297 296 296 296 296 296 296 295 295 295 295 295 294 294 296 299 301 303 305 306 307 308 309 308 308 309 309 309 309 310 311 310 309 308 306 305 303 300 298 297 297 297 300 302
301 300 299 300 301 300 300 300 299 300 300 300 300 300 301 302 301 301 302 303 303 302 302 302 302 302 302 301 302 301 301 300 300 299 299 299 299 299 299 298 298 297 297 296 296 296 295 295 295 294 294 295 294 294 294 294 295 298 301 303 305 306 306 308 308 308 308 308 308 308 309 310 310 309 308 307 305 303 302 300 298 297 298 300 302 304
300 299 297 298 299 299 299 299 299 299 298 298 299 299 299 300 300 302 302 302 302 302 301 301 302 302 301 301 301 300 300 300 300 299 299 299 299 299 298 298 297 297 296 296 296 296 295 295 295 294 294 294 293 293 293 293 294 297 300 302 304 305 307 308 308 308 308 308 308 308 308 309 309 309 308 306 304 303 301 300 299 298 300 302 303 304
298 299 297 297 297 297 296 296 296 296 296 296 296 296 297 297 298 299 300 300 301 301 301 301 301 301 300 301 300 300 300 299 298 299 299 298 299 299 299 298 297 297 296 296 296 296 295 294 294 294 294 293 293 293 293 294 295 297 300 302 303 304 305 306 307 308 308 308 308 308 307 308 309 308 307 306 304 303 302 300 299 299 301 303 303 303
296 298 296 295 296 295 295 295 294 294 294 294 294 294 294 295 295 296 297 298 299 300 300 300 301 300 300 300 300 299 298 298 299 298 297 298 298 298 298 298 298 298 297 296 297 296 295 293 293 294 294 295 295 295 295 295 296 298 300 301 302 303 305 306 307 307 308 308 307 307 307 309 309 308 307 306 305 304 302 301 300 301 302 303 303 303
295 296 296 295 296 295 293 293 294 293 293 293 294 294 294 294 294 295 295 296 297 298 298 299 299 299 299 299 299 298 297 299 300 297 295 296 297 297 298 298 298 299 298 297 297 296 296 294 293 294 295 296 296 296 296 297 297 298 299 300 302 303 304 306 307 307 307 307 306 307 308 309 310 309 308 307 306 305 303 301 301 301 302 303 303 302
294 296 298 296 296 296 292 291 293 294 295 298 299 299 298 296 294 293 294 295 296 296 297 298 298 299 299 299 298 298 298 299 299 296 294 295 296 296 297 297 298 299 299 299 298 297 297 296 296 296 296 297 298 298 298 299 299 299 300 301 303 304 305 306 307 307 307 307 306 307 309 310 310 309 309 308 306 304 302 301 301 302 303 303 302 302
293 296 297 294 296 299 294 293 295 296 298 301 300 297 298 297 295 295 294 294 295 296 297 297 298 298 298 298 298 298 297 297 296 296 296 296 296 297 297 297 298 299 299 299 299 298 298 298 297 298 297 298 298 298 298 298 299 300 300 301 302 303 304 306 307 307 307 306 307 308 308 309 309 309 308 306 305 303 302 302 302 302 302 302 302 302
293 294 294 292 294 297 294 294 298 302 302 300 296 294 295 295 294 294 294 294 294 295 296 297 297 297 297 297 297 296 296 296 296 297 298 298 297 297 297 298 299 300 301 300 299 299 299 298 298 298 298 298 298 297 297 297 298 298 298 299 300 301 303 305 306 307 307 306 307 307 308 308 308 307 306 305 304 303 303 303 303 302 302 301 302 302
294 293 294 293 293 295 295 296 301 303 300 298 296 295 295 294 293 294 297 298 295 293 295 296 296 296 297 296 296 296 295 295 297 299 299 298 297 297 299 300 300 301 301 301 300 300 299 299 299 299 299 299 298 298 298 298 298 298 298 299 300 301 303 305 306 307 307 307 308 308 308 308 308 307 306 305 305 304 303 303 303 302 302 301 302 302
293 293 294 294 293 294 295 297 298 297 298 301 301 297 295 297 298 297 299 301 299 296 294 295 296 296 296 295 294 294 295 295 298 301 299 297 297 299 300 301 301 301 301 301 300 300 300 299 299 299 299 299 299 299 300 299 299 299 299 299 300 302 304 305 307 308 308 308 309 310 310 309 308 307 306 305 305 305 304 304 304 303 302 302 302 302
292 293 293 294 294 293 293 294 296 298 302 306 301 295 294 295 296 296 297 300 302 299 294 294 296 296 296 297 295 293 296 299 301 301 299 297 297 299 300 302 302 302 301 301 300 300 300 300 299 299 299 298 298 299 299 299 299 299 299 300 302 303 304 306 308 309 309 309 308 308 308 308 307 306 305 305 306 306 305 305 304 303 302 302 302 302
291 292 292 293 295 293 292 294 296 299 303 303 299 296 294 291 292 295 298 304 307 300 293 294 298 298 297 298 297 296 300 304 303 300 298 298 298 298 299 301 302 302 302 301 301 300 300 300 300 299 299 298 298 298 298 298 299 299 300 300 301 302 304 306 308 307 307 306 305 305 305 305 305 305 306 307 307 307 306 305 304 302 301 301 301 301
291 292 292 292 293 293 292 293 294 295 298 298 298 297 294 291 294 298 304 313 312 299 291 293 299 299 295 292 295 300 303 304 303 301 299 298 298 297 298 299 300 301 301 301 301 301 300 300 300 300 300 300 300 299 298 298 298 298 299 299 299 300 302 304 305 304 304 304 304 304 305 305 306 307 308 308 307 306 305 304 302 302 301 301 300 300
290 292 292 291 292 292 292 293 293 293 295 296 296 296 294 294 297 301 306 310 303 294 292 293 295 297 295 292 296 302 302 301 301 301 299 298 298 298 297 298 298 299 300 300 301 301 301 301 301 301 301 301 300 299 299 298 298 298 298 297 297 298 300 301 302 303 303 304 304 305 305 306 307 307 307 307 306 305 304 303 302 301 301 301 300 299
291 291 291 291 291 291 292 292 292 294 296 295 295 295 295 297 301 304 304 303 298 295 296 296 296 297 298 297 298 301 300 300 300 300 299 299 299 298 298 298 297 298 298 298 299 299 300 300 301 301 301 300 300 300 299 299 299 300 299 299 300 301 301 301 302 303 304 305 305 306 306 306 306 306 306 306 305 304 304 303 303 302 301 300 299 299
294 293 291 290 291 292 292 291 293 297 298 295 295 295 295 299 303 302 300 300 299 298 298 297 298 299 299 299 300 300 300 300 300 300 300 300 299 299 298 298 297 297 297 297 298 298 298 298 299 300 300 301 301 300 300 300 300 300 300 301 303 303 302 301 302 302 303 304 305 306 306 306 307 307 306 306 306 305 304 303 303 302 301 299 298 298
295 296 294 292 292 293 293 291 294 298 298 295 298 300 297 298 301 299 298 299 299 298 298 298 299 299 299 299 300 300 299 299 299 299 299 299 300 300 299 298 298 297 298 298 298 298 298 298 298 298 299 300 300 301 301 301 301 300 301 302 303 301 300 300 300 300 301 302 303 304 304 305 306 306 306 306 304 303 302 302 301 300 299 298 298 297
297 298 298 297 295 295 295 294 294 296 296 295 298 299 298 299 300 298 297 298 298 298 298 299 299 300 299 299 300 299 299 299 299 299 299 299 299 299 299 299 299 298 298 298 299 299 299 299 298 298 298 298 298 299 300 301 301 301 302 303 302 300 299 299 298 298 299 299 300 301 301 302 302 303 303 303 302 302 301 301 300 299 299 298 298 297
297 296 297 299 298 296 296 296 295 295 295 295 296 298 298 299 300 298 297 298 299 299 299 299 300 300 299 299 299 299 299 299 299 299 299 299 299 299 299 299 299 299 299 299 299 300 300 300 300 299 299 299 298 298 298 299 299 300 300 301 300 300 300 299 298 299 298 298 298 299 299 299 300 300 301 301 301 301 300 300 299 299 298 298 297 296
297 295 296 298 299 298 299 299 297 296 296 296 297 298 298 298 299 299 299 299 300 300 299 299 299 299 299 299 298 298 299 299 299 299 299 299 299 299 299 299 299 299 299 299 299 300 300 300 301 300 300 300 300 299 299 298 298 298 298 298 298 299 299 299 299 299 298 298 298 298 298 298 298 298 298 298 298 298 298 297 297 296 296 296 295 295
298 296 296 297 297 298 300 300 299 297 297 297 297 298 298 299 300 300 300 300 300 299 298 299 299 299 298 299 298 298 299 298 299 299 299 299 299 299 300 300 300 300 300 299 299 299 300 300 300 300 300 300 300 300 299 299 299 298 297 297 298 298 298 298 298 298 298 298 298 298 298 298 297 297 297 297 297 297 297 296 296 296 296 296 296 295
297 296 296 297 297 297 298 299 298 297 297 298 298 298 298 299 299 300 301 302 300 299 298 298 299 299 299 299 299 299 299 299 300 300 300 300 299 299 300 302 302 301 300 300 300 299 300 300 300 300 300 300 300 299 299 299 299 299 298 297 297 297 297 298 298 298 298 298 297 298 298 298 297 297 297 297 297 297 297 297 296 296 296 297 296 296
297 297 297 297 298 298 299 299 299 299 299 299 299 299 299 299 300 300 301 301 300 300 299 299 299 299 299 300 300 300 300 300 301 301 301 301 300 300 300 301 302 302 301 300 300 300 300 300 300 300 299 300 299 299 299 299 299 299 299 298 298 297 297 297 297 297 297 297 297 298 298 298 298 297 297 297 297 296 296 295 295 295 295 295 295 294
299 299 298 298 299 300 300 300 299 299 300 300 300 301 301 301 301 300 300 301 301 301 301 301 300 300 300 300 301 301 301 301 302 301 301 301 301 301 301 301 301 301 301 300 300 300 300 300 299 299 299 299 299 299 299 299 299 299 299 299 299 298 297 296 296 297 297 297 297 297 297 297 297 297 297 296 296 295 295 295 294 294 294 295 294 293
Wind_Speed
7 3 2 1 2 3 3 4 5 4 4 3 1 0 2 3 4 5 5 5 4 3 5 4 5 9 12 10 11 16 13 11 16 17 19 23 25 27 26 25 24 21 19 17 14 15 17 19 18 17 16 17 19 20 20 20 23 27 33 37 38 43 45 45 44 42 40 38 38 37 36 36 37 36 34 32 30 28 26 25 23 22 22 23 23 23
5 3 1 4 5 5 4 4 4 3 3 2 1 1 3 3 5 6 4 5 5 2 4 3 6 11 13 11 12 13 10 11 16 16 19 23 24 27 27 27 27 22 20 20 17 15 16 18 20 20 19 19 19 20 19 20 23 25 29 33 33 37 43 45 45 43 41 40 39 38 36 36 36 36 35 32 31 30 28 26 25 23 23 24 25 24
4 1 4 6 4 2 1 2 3 3 3 2 1 1 3 3 4 6 4 4 4 1 4 3 4 11 14 12 13 14 12 17 23 22 24 26 25 27 28 28 28 25 23 22 21 18 16 17 19 21 22 21 20 18 18 19 21 23 26 29 30 31 35 40 43 43 43 42 39 36 35 35 35 35 34 32 30 29 28 27 26 25 24 24 26 26
2 3 5 5 5 2 1 1 4 4 3 2 1 0 3 3 2 4 4 5 5 2 3 4 5 9 12 9 11 15 15 20 27 27 27 28 27 29 29 28 28 28 27 25 23 22 20 19 19 21 22 22 21 18 17 18 19 21 23 26 29 29 30 35 40 42 43 42 40 39 38 36 35 35 34 33 30 28 28 27 26 26 25 25 27 26
4 6 3 4 4 2 3 3 3 3 1 1 2 3 2 2 2 4 4 6 6 3 2 4 6 6 6 6 8 10 8 13 21 21 24 28 29 30 29 29 32 31 31 29 27 25 24 23 21 20 20 23 25 22 18 18 18 20 21 23 26 27 29 32 37 42 43 42 43 43 41 37 36 37 36 34 32 30 29 29 28 27 26 26 27 26
5 3 2 3 4 3 3 3 1 2 1 2 3 4 4 4 4 4 5 5 5 4 2 5 5 6 5 6 9 9 6 10 13 10 18 28 28 28 30 33 36 35 34 33 31 29 27 26 25 22 21 24 29 28 23 20 19 18 18 20 23 25 27 29 33 39 42 43 45 44 42 40 39 40 39 37 35 33 32 31 30 29 27 28 28 26
3 1 3 1 2 4 3 4 4 1 2 2 3 4 5 4 3 3 3 3 2 4 3 4 1 6 7 10 15 13 9 13 11 8 16 26 28 28 31 34 35 36 36 35 34 33 31 29 28 27 24 24 27 29 27 24 22 21 19 19 22 25 27 28 31 36 38 39 40 41 42 42 44 45 43 40 37 34 33 32 32 30 29 29 29 27
2 2 3 3 3 3 2 3 3 2 3 2 2 3 3 3 3 3 1 0 2 4 5 2 4 4 7 12 13 6 6 11 12 11 15 23 31 34 36 38 37 36 36 34 34 34 34 34 31 29 28 26 24 25 28 28 25 23 22 22 22 24 27 28 30 32 33 34 36 37 37 36 39 42 41 39 38 35 34 33 33 32 31 29 28 27
1 1 0 1 2 1 3 3 3 3 1 4 3 1 2 2 2 2 2 2 1 3 5 2 3 1 6 11 6 2 4 11 14 15 14 18 28 33 36 40 41 40 38 35 34 33 34 35 34 32 30 28 26 25 28 30 27 24 23 23 23 24 26 28 28 29 30 32 35 37 33 30 32 35 36 37 37 36 34 33 33 32 30 28 27 27
2 2 2 3 1 3 4 4 3 3 2 3 2 1 3 2 2 2 1 1 2 2 4 5 4 1 6 11 4 2 4 10 11 12 11 15 25 29 33 38 40 42 41 40 39 37 35 35 34 34 33 32 30 29 29 30 29 27 26 25 25 25 25 27 28 30 31 32 34 35 35 34 35 36 37 37 36 35 34 34 34 31 30 29 28 28
4 2 1 3 4 4 3 3 3 4 3 2 3 3 4 3 4 3 1 2 3 2 6 6 5 3 4 9 3 3 5 8 7 8 9 12 20 27 30 33 35 37 38 40 42 42 40 38 36 35 35 35 34 32 32 32 32 32 30 28 27 27 27 28 29 31 32 33 34 35 36 37 37 37 37 37 36 35 35 34 32 31 30 29 28 27
4 2 2 3 4 3 2 1 2 1 0 2 4 3 4 5 3 4 4 3 2 4 6 4 2 3 4 9 5 5 7 7 6 7 9 10 16 24 29 31 33 33 34 36 40 42 42 41 41 40 38 37 37 37 36 35 35 36 34 32 30 30 31 30 31 31 32 33 34 35 36 37 38 37 35 34 33 33 31 30 30 30 29 28 28 27
3 3 2 3 2 5 4 1 2 3 4 3 3 4 3 4 4 3 3 1 2 5 3 1 1 2 7 12 13 14 15 12 10 11 14 15 19 27 31 32 32 31 32 33 35 38 40 41 43 44 43 41 40 40 40 38 37 37 37 36 34 33 33 32 31 31 32 33 34 35 36 36 36 35 33 32 31 30 29 29 30 29 28 26 25 25
3 3 1 1 2 6 6 3 0 2 1 1 2 3 3 2 3 3 4 3 4 5 4 3 2 3 7 9 13 17 17 17 15 16 22 23 26 30 32 32 32 31 32 33 34 36 38 40 43 45 46 46 44 42 42 41 39 38 38 39 37 36 35 35 33 33 33 34 33 34 34 34 34 34 33 32 31 30 29 29 29 27 25 24 23 23
1 4 2 3 1 5 6 3 3 3 2 2 3 4 3 3 2 3 3 2 4 5 4 3 2 3 4 4 7 10 12 15 18 20 23 24 27 30 32 33 33 34 34 33 34 36 38 40 41 44 46 47 47 45 44 44 42 40 39 40 39 38 37 37 36 35 35 35 34 34 34 33 32 32 32 30 29 29 28 27 27 26 23 22 22 23
1 5 5 2 1 6 4 3 4 4 2 1 2 4 1 3 3 2 3 4 3 5 4 2 3 5 4 11 15 12 12 14 18 21 19 21 28 29 30 33 34 35 34 33 33 35 37 40 41 42 45 47 48 47 46 46 44 43 41 40 40 39 38 38 37 36 35 36 35 35 34 32 32 32 30 28 28 27 26 25 25 23 22 22 22 23
1 5 4 1 1 5 4 3 3 2 1 1 2 2 3 3 4 1 2 2 1 4 3 2 5 6 4 11 13 8 9 9 9 11 12 18 26 25 27 33 35 35 35 34 33 32 34 39 42 43 44 46 47 48 48 47 46 45 43 41 40 39 39 38 37 36 35 35 34 33 32 31 31 31 29 27 27 26 25 24 23 21 22 22 22 22
2 4 4 1 2 5 3 3 1 1 4 3 1 3 2 1 3 2 2 3 1 4 4 3 8 10 5 6 7 7 12 9 4 6 8 13 19 20 25 32 35 37 37 37 36 34 33 36 42 45 45 46 47 47 48 48 46 46 43 41 40 39 39 38 36 35 34 34 32 30 30 30 30 30 29 28 26 25 24 23 23 22 22 22 22 21
2 2 5 2 2 2 0 1 2 1 3 3 1 2 2 1 1 2 1 3 1 4 5 3 7 10 6 6 7 11 13 10 6 6 8 11 13 16 23 29 33 38 40 40 40 40 39 38 41 45 46 46 46 45 47 47 46 46 44 41 39 39 38 37 35 34 34 33 31 29 29 29 29 29 29 28 26 24 23 22 23 23 22 22 22 22
2 1 4 3 1 1 1 1 2 1 2 2 1 1 1 2 2 1 2 2 1 3 5 5 7 7 7 6 7 13 14 9 8 7 8 9 11 16 22 27 31 35 38 39 40 42 43 40 41 45 47 47 47 46 46 46 46 45 44 42 40 39 38 37 36 35 33 32 30 29 29 28 29 29 28 26 25 24 23 23 23 22 22 23 23 23
2 2 3 2 1 2 2 3 5 5 4 4 2 1 2 2 1 2 3 2 2 2 3 5 8 9 10 7 9 13 12 8 8 8 7 8 13 20 24 26 29 33 36 38 40 41 42 41 41 43 45 45 45 45 45 45 45 45 44 43 41 40 39 37 35 34 32 31 30 30 29 28 28 28 26 25 25 24 24 23 22 22 23 23 23 23
2 2 2 2 2 3 4 5 6 7 7 5 5 5 4 4 2 2 3 3 3 3 2 4 7 13 14 5 4 8 7 7 8 7 6 9 18 24 24 23 27 32 34 35 35 36 38 38 39 41 43 43 44 45 44 44 44 44 44 43 40 39 39 37 35 33 31 31 31 30 28 28 28 27 26 26 26 25 24 23 23 24 24 24 24 23
3 2 2 4 5 6 6 4 3 5 5 3 4 5 5 5 5 3 3 2 3 3 4 3 5 14 15 3 4 6 6 7 8 6 7 14 23 26 25 26 28 28 29 28 25 26 29 33 35 38 40 42 43 44 44 43 44 44 43 42 40 39 39 37 34 33 32 32 32 30 28 29 28 27 27 28 27 27 26 26 26 26 26 26 25 25
3 2 2 4 5 5 5 2 3 2 2 2 4 4 5 5 6 6 3 0 2 4 4 3 4 14 15 3 2 5 4 5 10 11 13 17 23 26 27 30 29 25 24 22 17 17 22 28 32 35 38 40 41 42 43 42 43 43 42 41 40 40 39 37 34 33 33 33 32 31 30 30 29 29 29 30 29 29 28 28 28 28 28 28 27 27
5 1 2 2 5 5 5 3 2 1 2 4 4 4 6 7 5 4 2 1 4 6 8 5 8 15 12 3 2 6 8 10 15 19 18 16 20 26 28 30 27 22 19 16 13 14 20 25 30 34 36 38 40 40 41 41 41 41 41 40 41 40 38 36 35 35 34 33 32 32 31 31 30 31 31 31 30 30 30 30 30 31 30 30 29 28
5 1 3 3 2 4 4 3 2 2 2 3 3 5 8 9 9 6 2 3 6 5 8 9 11 15 16 14 16 16 13 15 16 18 19 17 21 26 28 28 24 18 15 11 11 15 19 23 28 32 34 36 38 39 39 40 40 40 40 41 40 39 37 36 36 36 34 33 33 33 33 32 32 33 33 33 32 32 32 32 32 32 31 30 29 27
3 2 5 5 6 8 7 6 4 2 1 3 5 7 8 9 12 8 3 6 6 3 8 15 16 18 25 26 25 19 14 16 16 15 17 21 25 29 28 24 19 15 13 10 12 16 20 23 27 30 32 34 36 37 38 38 38 38 39 40 39 37 35 35 36 36 35 34 34 34 34 34 34 35 35 35 35 35 34 33 32 32 31 30 29 27
2 3 6 8 12 12 11 10 6 4 6 9 10 11 11 10 12 11 11 10 3 1 13 15 9 14 25 25 23 22 19 18 16 13 17 24 30 32 27 20 15 12 12 11 13 17 20 24 27 29 31 32 34 35 36 36 36 36 37 37 37 35 35 35 36 37 36 35 35 35 35 35 35 36 37 37 36 35 33 33 33 33 32 31 29 28
1 3 5 6 12 14 12 12 11 9 12 13 14 16 15 13 14 16 19 16 8 10 19 13 5 13 22 22 23 24 20 16 17 22 26 29 32 30 23 16 13 12 12 13 15 18 21 24 27 29 30 31 32 34 35 35 34 33 33 34 34 35 35 35 36 37 37 37 37 36 36 36 37 38 38 38 36 35 34 35 35 34 33 32 30 28
2 3 3 4 8 11 10 12 12 11 13 14 16 18 17 17 18 20 21 19 17 21 25 23 20 22 23 23 26 29 25 21 24 29 30 28 27 24 19 16 15 13 14 15 16 18 22 24 25 28 29 30 32 33 34 34 33 32 33 34 35 36 37 37 38 38 38 38 37 37 37 38 39 40 39 38 36 35 36 36 36 35 33 32 30 29
3 2 0 3 4 8 7 8 8 8 11 14 17 19 19 18 18 19 20 17 17 21 26 25 22 21 23 23 23 26 27 21 19 22 22 23 24 21 18 17 16 15 15 15 16 19 21 24 25 26 28 29 30 31 32 32 31 30 33 35 36 36 36 37 38 38 38 38 38 38 39 40 41 41 40 38 37 37 37 37 36 35 34 33 32 31
4 3 2 4 3 6 1 2 7 7 9 14 20 23 20 17 15 15 16 14 16 20 21 16 13 16 20 17 13 15 16 10 10 15 18 22 24 20 19 20 18 17 16 15 17 19 21 23 24 25 26 27 28 30 31 30 29 30 34 35 35 35 35 36 37 38 39 39 39 40 41 42 41 41 40 39 39 38 38 38 38 36 35 34 33 32
5 3 1 2 2 4 1 3 6 7 9 12 14 13 10 9 11 11 10 13 17 16 12 10 12 15 14 10 10 15 13 6 8 16 20 23 25 22 21 21 20 18 16 15 16 17 19 21 22 23 23 24 25 25 26 26 26 27 31 33 33 34 35 35 36 37 39 40 41 42 43 44 44 42 42 43 42 41 40 39 39 37 37 35 34 33
4 4 3 2 2 4 4 6 8 8 9 7 3 4 5 6 10 11 11 14 16 14 13 13 14 13 11 10 12 14 13 12 18 25 24 21 22 22 21 19 17 15 14 15 15 15 16 18 19 20 20 21 21 21 22 24 24 25 28 32 34 35 35 35 35 37 39 41 42 44 46 46 46 45 45 43 41 40 39 38 38 38 37 36 35 34
6 5 2 2 2 4 4 7 7 7 8 7 8 6 7 7 9 12 15 16 16 17 18 17 17 16 14 14 16 15 16 22 27 27 20 14 14 17 19 16 12 9 9 11 13 14 15 16 17 19 19 19 20 21 23 24 24 25 27 31 34 35 35 34 34 35 38 42 44 46 47 47 46 45 43 40 39 39 39 38 38 38 37 37 36 35
7 5 2 2 2 2 2 2 3 7 10 14 14 6 2 2 3 4 10 13 13 16 18 19 20 19 14 15 21 21 19 22 23 17 11 11 12 14 15 11 5 4 3 5 7 9 11 12 14 15 16 18 19 20 21 22 23 24 25 28 32 33 33 34 35 36 39 43 45 46 47 46 45 44 42 41 41 41 40 39 39 39 37 37 36 36
7 5 2 3 3 2 2 3 4 10 15 13 7 1 4 3 5 3 4 8 10 14 16 17 18 16 13 16 22 21 15 12 11 8 7 11 13 14 13 8 2 1 1 0 1 3 5 8 10 12 14 17 18 19 20 21 22 23 24 27 31 33 34 35 36 36 39 43 46 47 47 47 46 46 45 45 44 43 41 40 40 39 38 38 38 37
4 4 5 5 3 2 1 4 4 6 8 6 3 3 3 4 6 5 1 7 8 10 14 16 15 13 12 13 13 10 5 5 5 5 6 10 12 13 13 8 3 1 1 2 2 3 2 4 7 10 13 16 18 19 20 21 22 24 26 28 31 34 36 36 36 38 41 46 49 50 50 50 49 49 48 47 45 43 42 41 41 39 39 39 39 39
2 1 4 4 3 2 3 4 3 4 7 5 3 5 1 3 6 4 3 7 7 5 11 14 12 11 10 9 6 2 4 4 4 6 5 9 10 11 12 9 5 3 2 2 2 4 4 5 6 8 11 14 17 19 20 22 23 25 27 30 32 35 38 40 40 42 45 49 51 52 52 51 50 49 47 46 45 44 43 41 40 40 40 39 39 39
3 2 3 5 7 4 4 4 4 6 8 6 5 6 2 0 3 4 4 8 6 3 11 15 11 11 12 10 6 4 3 1 3 5 5 7 8 9 10 10 8 5 2 2 2 3 4 6 8 9 10 11 13 15 18 21 23 26 29 30 33 37 40 42 43 44 45 47 49 51 51 50 49 48 47 47 45 43 41 41 40 40 40 40 40 39
2 1 3 5 7 6 6 6 6 6 8 10 14 14 4 6 5 1 4 8 5 4 13 18 15 14 13 12 10 7 4 3 2 4 6 7 7 7 8 8 7 6 4 2 1 1 2 4 6 7 7 8 10 13 16 18 22 25 27 28 32 35 37 38 39 40 41 43 45 47 48 48 48 47 47 45 43 41 40 41 41 41 41 41 41 41
3 1 2 3 4 4 5 5 5 7 9 13 16 15 6 3 3 6 7 5 4 7 14 18 18 15 12 13 14 10 5 2 2 4 6 7 7 7 8 7 6 6 5 3 3 2 1 1 2 5 6 8 11 13 15 17 20 21 23 26 28 27 27 28 31 34 37 39 41 43 45 46 46 46 46 44 43 42 42 42 42 43 43 42 42 42
8 5 4 5 4 3 3 4 4 7 6 8 9 6 6 6 5 5 5 5 6 9 14 16 17 15 13 14 15 12 7 4 4 5 5 7 8 8 8 7 7 8 6 3 3 2 1 1 1 3 5 7 10 13 15 18 19 20 23 25 23 21 22 25 28 31 34 37 39 40 42 44 45 46 46 45 44 43 43 42 43 44 44 44 44 44
7 6 4 5 5 5 5 8 8 6 4 15 15 5 10 20 14 3 0 3 6 7 13 16 16 15 15 15 14 12 11 8 7 7 7 8 9 8 8 9 9 9 7 6 5 3 1 1 0 2 4 6 8 11 13 16 18 20 22 22 20 20 24 26 27 30 33 35 38 39 41 42 43 44 45 45 44 43 43 43 44 45 46 46 46 47
11 12 8 7 8 8 8 10 10 8 8 16 18 13 16 26 25 15 9 8 9 9 11 15 16 15 16 16 15 14 14 12 10 10 12 13 12 11 10 10 11 11 11 10 9 6 4 3 2 3 5 6 7 10 12 13 15 17 17 16 18 22 24 25 27 30 32 34 36 38 39 40 41 42 43 43 43 43 43 43 44 45 46 47 48 49
12 15 8 3 4 6 9 12 13 12 13 19 26 26 22 23 25 25 23 23 22 19 16 16 17 16 16 17 17 17 17 16 15 15 16 18 18 17 16 14 13 13 14 14 12 9 8 7 6 6 7 7 8 10 11 13 14 13 11 11 15 19 21 23 26 28 29 31 33 34 36 37 38 39 40 41 41 42 42 43 43 44 45 47 48 49
7 13 9 3 3 5 7 10 15 21 25 28 31 33 31 30 30 30 30 31 31 28 23 20 18 17 17 18 20 20 20 19 20 22 23 23 23 23 22 19 16 15 16 16 15 13 12 11 11 11 11 11 11 11 12 14 14 12 11 13 16 17 19 22 24 26 27 29 29 31 33 34 35 37 38 39 40 41 42 43 44 45 46 47 49 50
7 13 11 8 8 8 8 9 16 26 31 30 30 32 33 37 39 38 38 39 38 35 32 29 27 25 25 25 24 24 24 23 25 29 30 29 29 27 23 20 17 15 16 17 18 17 17 16 15 15 14 14 14 14 14 15 15 13 14 16 17 18 20 22 23 24 25 26 27 29 31 32 33 35 37 38 39 41 42 43 44 46 47 48 48 49
9 11 7 6 9 11 13 14 16 20 19 20 29 35 35 36 38 37 36 38 40 38 36 34 33 31 31 31 29 29 30 30 30 31 32 32 30 27 23 19 17 16 17 18 19 18 18 18 18 17 17 17 16 16 18 18 16 15 15 17 18 19 21 22 23 24 25 26 27 28 29 31 32 34 35 37 38 39 41 42 43 44 45 44 45 45
9 7 5 5 8 11 13 14 15 13 10 14 26 35 35 35 37 37 37 38 40 40 38 36 35 33 32 31 31 32 34 34 31 28 28 27 26 25 23 21 20 20 20 19 20 19 18 20 21 21 21 19 18 19 21 21 20 18 17 18 20 21 22 23 24 25 26 27 28 29 30 31 33 34 35 37 37 39 40 40 41 42 42 41 42 42
14 11 9 9 12 15 17 18 19 16 12 14 24 31 33 33 35 37 39 40 40 40 39 38 38 36 34 32 30 31 33 33 29 25 26 28 27 25 25 24 24 25 24 22 23 22 22 23 23 24 25 23 20 21 22 23 23 22 21 21 22 23 24 25 26 27 28 28 29 30 31 32 33 34 35 36 37 38 39 39 40 41 40 40 40 41
Wind_Direction
1 33 50 126 205 249 239 194 197 201 190 213 241 292 285 280 283 286 278 298 351 329 277 290 299 289 288 285 278 288 293 267 259 259 257 262 272 279 280 276 273 274 281 284 272 262 255 246 249 257 257 257 250 238 232 224 215 208 205 204 199 200 204 205 206 207 209 212 214 215 214 212 210 208 206 206 208 212 215 217 219 221 222 221 217 212
11 68 265 236 220 233 221 190 183 157 133 159 176 345 317 277 267 276 275 306 353 352 279 301 307 287 280 281 277 278 283 265 256 253 255 257 262 270 276 277 276 275 274 272 268 265 260 249 246 250 254 259 255 245 239 228 220 218 217 216 210 203 202 203 203 205 208 212 214 215 215 214 212 211 211 210 212 215 217 219 221 224 224 225 226 221
11 59 259 264 259 244 187 143 126 108 100 94 94 352 307 290 279 288 295 322 356 344 290 323 304 279 274 272 275 269 257 261 261 256 258 260 258 260 266 272 275 273 267 264 264 262 261 257 249 247 248 253 251 242 239 235 229 226 224 225 224 217 208 203 202 203 207 210 212 217 219 216 215 215 216 216 216 219 221 223 225 227 226 228 230 226
360 255 266 295 295 268 291 8 88 81 78 100 90 292 288 311 327 296 309 324 325 277 259 294 287 277 278 273 271 266 257 264 267 264 264 261 257 257 260 265 268 269 266 261 259 257 256 255 251 250 246 245 246 239 234 237 236 234 229 225 224 225 220 213 209 207 208 210 211 216 217 217 219 219 219 220 220 222 224 224 226 228 227 231 233 228
250 255 293 336 322 288 295 330 76 88 25 255 210 179 216 280 256 243 281 315 325 305 256 306 306 282 289 292 279 279 276 274 273 274 275 268 262 261 259 259 258 261 263 261 257 253 250 250 250 252 248 245 248 246 240 238 236 234 233 229 223 222 224 224 220 214 212 212 212 213 214 216 220 221 220 220 220 223 225 224 223 225 228 232 233 229
259 268 351 343 331 343 323 306 237 146 76 293 227 182 184 206 229 258 298 333 354 334 333 29 352 289 291 293 272 277 285 274 271 271 273 272 269 264 260 260 258 256 257 257 256 253 249 247 245 245 242 240 243 246 244 242 238 232 232 235 232 227 226 227 225 220 217 214 212 211 213 217 221 221 219 218 219 222 224 224 222 223 228 232 232 231
262 348 51 84 343 357 351 304 277 156 97 302 234 180 175 168 200 272 327 3 358 287 289 77 86 272 294 284 263 261 263 265 266 256 261 266 267 263 260 262 262 259 257 255 254 252 249 246 242 240 240 236 238 240 240 239 237 233 232 236 236 234 230 227 225 224 224 222 218 212 211 217 221 219 215 214 218 222 223 224 223 222 226 230 232 232
227 353 26 66 54 15 338 295 263 128 100 277 243 164 174 172 222 245 132 190 237 277 296 146 162 257 283 271 262 255 263 270 268 259 256 257 257 257 257 259 260 259 259 256 253 251 248 247 244 241 241 239 237 236 236 235 232 231 231 231 234 235 232 228 225 224 226 229 228 221 216 219 222 218 214 213 216 218 220 223 223 222 225 228 232 233
192 151 7 82 53 334 262 252 217 143 96 264 243 213 261 237 231 208 164 229 280 341 304 218 150 263 269 266 274 86 252 264 262 255 252 251 253 255 256 258 258 258 258 257 254 252 250 248 245 243 242 239 235 232 234 233 229 227 226 225 227 230 231 229 226 224 223 225 227 225 224 227 226 222 220 219 216 215 220 223 222 223 226 229 234 235
237 180 161 145 186 239 238 248 206 173 254 267 227 325 352 32 32 43 153 217 42 358 263 209 167 204 278 278 286 90 242 251 256 258 256 256 257 258 259 259 260 259 257 256 255 253 252 251 250 246 243 239 234 230 232 232 227 224 222 221 222 223 225 226 226 225 223 222 223 222 224 228 227 222 221 222 220 219 220 221 220 223 226 228 231 233
276 246 192 188 210 208 206 243 212 198 252 328 43 358 343 6 25 30 22 75 69 287 256 223 193 158 295 286 244 164 223 219 231 259 263 261 259 260 263 265 266 264 260 258 257 255 254 252 251 248 245 240 236 231 229 229 227 224 221 220 220 220 220 220 222 224 225 225 224 223 224 227 228 226 224 223 224 225 222 220 220 223 226 227 226 227
309 215 211 239 216 171 119 278 243 216 327 59 55 24 340 327 358 17 353 35 97 258 263 243 205 153 237 268 244 219 236 215 209 247 262 265 262 264 269 272 273 272 268 263 260 258 255 251 248 246 244 240 236 232 229 227 226 223 221 219 218 220 219 218 219 221 225 226 224 223 224 227 230 232 232 230 230 230 229 226 226 227 227 226 225 226
315 210 238 317 244 174 139 41 313 359 38 69 59 53 28 343 359 356 321 342 212 249 262 229 221 213 238 256 260 262 265 256 237 239 251 260 264 267 270 272 275 275 273 269 265 261 255 251 248 245 243 239 235 232 229 227 226 223 222 220 218 219 218 218 219 219 223 225 225 224 223 225 228 232 236 237 236 237 238 237 234 232 231 231 231 233
328 302 278 329 276 191 166 144 269 335 40 125 115 100 102 67 23 316 287 300 286 278 273 225 201 268 269 262 250 249 257 261 255 246 247 251 257 265 270 272 273 273 271 270 268 264 258 253 250 246 243 240 236 233 229 227 226 224 222 221 219 218 218 218 219 219 222 224 226 226 224 224 226 228 230 233 236 237 239 239 237 235 234 237 240 239
348 310 219 193 213 171 181 192 163 140 126 170 152 129 134 138 153 265 253 257 289 292 272 224 184 229 257 280 250 237 248 259 261 257 253 255 259 265 271 272 271 269 267 266 265 264 261 258 254 248 243 240 237 233 229 226 225 223 222 221 220 217 216 218 218 218 221 223 224 224 224 223 224 226 227 229 232 233 235 236 235 235 235 237 240 239
105 271 245 249 170 161 187 208 150 116 92 214 134 115 143 176 165 224 213 201 267 299 274 216 232 223 238 284 279 269 266 262 262 262 259 260 262 263 264 266 267 267 266 263 261 262 261 258 254 249 244 240 237 233 230 226 223 223 221 219 220 218 217 218 218 218 219 221 222 222 222 221 223 226 226 227 228 229 231 232 234 236 236 235 235 233
69 279 276 5 221 200 192 175 157 134 151 164 124 172 236 180 132 88 263 233 4 296 267 202 263 274 293 286 283 290 286 269 262 267 257 255 260 259 257 259 262 264 265 263 259 261 263 258 251 246 243 240 236 233 231 227 223 222 221 218 218 218 218 218 217 217 218 219 221 222 223 222 223 224 224 224 225 225 227 229 231 232 232 233 231 227
160 282 288 117 223 244 205 161 296 214 148 121 154 222 230 150 111 88 283 299 346 278 269 208 263 286 303 285 299 317 297 290 292 278 267 262 262 259 257 258 261 263 266 265 261 259 262 259 251 244 241 239 237 236 234 229 223 221 221 219 218 217 218 217 217 216 217 217 218 220 222 222 222 221 221 222 223 223 224 224 224 224 226 228 225 220
134 315 294 254 202 266 136 132 300 287 137 123 191 215 134 157 240 108 222 264 273 288 285 238 264 278 256 244 282 289 283 295 305 267 260 266 262 261 263 266 268 268 267 264 263 260 257 255 251 243 238 235 233 233 233 230 223 219 219 218 217 217 218 217 216 216 215 214 215 217 219 220 221 221 220 220 220 219 219 220 220 220 220 219 215 211
131 110 287 287 187 168 63 139 216 254 111 108 345 335 124 192 218 169 226 241 209 286 293 294 301 285 243 223 251 270 276 286 285 264 257 262 262 266 269 272 274 273 269 266 265 263 258 254 251 242 235 231 228 226 227 226 223 219 217 216 215 215 216 215 215 214 213 212 213 215 216 218 221 222 220 218 216 213 211 213 216 217 215 212 209 206
102 134 245 289 239 191 202 203 192 181 158 155 189 219 202 208 225 239 231 196 205 263 287 293 299 285 273 260 241 257 272 269 260 263 263 260 270 278 278 279 281 279 277 274 270 266 260 254 247 237 229 226 222 220 221 222 221 218 216 215 214 214 213 213 213 213 212 211 212 212 214 217 220 220 217 214 212 209 207 208 210 212 210 207 206 204
138 153 207 247 241 211 222 217 193 180 167 164 182 187 191 184 169 254 247 195 207 225 225 267 292 283 277 269 202 232 247 250 252 253 259 274 285 290 291 291 291 289 287 285 277 268 259 249 237 226 219 217 215 214 216 218 218 217 215 213 213 214 214 212 211 210 209 210 212 211 211 214 216 215 212 209 206 205 204 205 206 207 206 204 203 203
140 135 221 256 245 240 254 241 178 177 167 166 198 183 176 172 166 210 240 216 214 217 229 251 277 274 270 234 160 228 235 245 251 241 261 287 294 298 302 304 305 304 301 298 288 269 252 237 224 216 212 210 210 211 212 214 216 216 214 211 211 214 214 213 210 208 208 209 210 209 208 211 212 210 208 205 203 202 201 201 202 202 203 203 203 204
137 131 227 272 276 275 293 353 77 96 144 210 237 178 173 192 193 210 220 332 274 226 225 242 251 266 274 276 198 251 255 263 273 278 281 288 296 302 307 313 316 315 310 305 291 259 234 221 212 207 206 204 206 208 209 212 214 214 212 209 209 212 213 212 209 206 207 208 207 206 206 208 207 206 206 203 201 200 200 199 199 200 202 203 205 207
171 177 163 287 316 326 342 11 50 69 169 221 240 185 199 213 213 248 275 328 278 227 205 231 255 258 267 311 313 286 298 294 289 293 292 289 296 304 311 317 319 316 310 300 273 238 217 209 205 203 202 202 203 205 207 210 212 211 209 207 208 210 211 210 208 206 206 206 207 206 205 205 204 204 205 203 200 200 199 199 199 200 202 204 206 209
169 238 155 148 273 277 292 279 224 198 180 219 228 197 208 210 210 234 239 221 249 212 187 219 245 259 275 290 289 287 292 293 292 298 302 300 301 306 312 316 317 311 301 283 250 224 209 204 202 200 200 200 202 204 205 208 210 209 207 206 207 208 208 208 208 207 205 205 207 207 204 203 204 204 204 202 201 200 200 200 200 201 204 207 210 212
125 265 202 198 219 229 252 244 201 134 178 234 236 215 209 206 209 217 213 223 234 241 248 243 240 265 282 285 285 291 293 291 295 304 309 309 308 310 312 313 311 302 288 267 237 218 204 200 199 197 198 199 201 204 206 208 209 208 206 205 205 205 205 206 208 207 205 205 207 207 205 204 204 204 204 202 202 202 201 201 202 203 206 209 213 217
79 252 226 234 235 242 262 263 260 295 272 261 261 248 232 216 208 212 222 227 204 297 265 251 216 248 270 275 283 291 292 292 300 306 306 307 307 307 307 305 301 289 273 254 233 218 206 200 198 196 197 199 202 204 207 209 209 208 207 205 202 201 202 204 207 207 205 205 207 207 204 204 204 204 204 203 203 203 202 202 204 206 209 212 215 219
124 248 228 231 244 252 263 268 271 273 265 261 260 256 249 231 218 222 231 231 219 232 251 261 255 255 266 277 281 282 284 294 301 300 300 300 300 300 300 294 287 275 257 244 234 222 212 205 201 198 198 200 202 204 207 209 209 208 205 203 201 201 201 203 207 208 206 206 207 206 203 203 203 205 206 205 204 203 203 205 207 208 211 214 217 220
150 249 228 206 254 264 258 260 264 260 264 267 259 255 253 242 231 232 239 235 228 238 251 263 272 271 271 273 274 277 286 295 295 294 294 293 295 299 296 285 277 266 250 241 235 227 219 211 206 204 202 202 204 206 208 210 210 207 202 199 200 201 201 203 206 208 208 207 207 205 203 202 203 205 206 206 205 204 205 207 209 211 214 217 218 220
173 247 355 114 280 277 254 256 264 256 263 269 265 258 248 242 239 237 241 238 231 242 251 256 266 273 269 266 270 280 288 294 291 288 289 290 295 298 293 284 276 265 254 243 235 231 223 214 209 208 208 209 211 212 214 215 213 207 201 199 200 201 202 204 206 208 209 208 206 204 202 202 204 206 207 206 206 206 207 209 211 214 216 218 219 221
181 249 16 69 297 276 263 326 297 285 279 272 270 265 248 235 230 227 231 226 219 233 246 252 258 258 259 269 283 284 284 286 284 285 291 296 300 299 289 283 280 271 262 248 235 230 223 216 212 211 211 213 215 215 216 216 213 207 202 200 200 200 203 205 207 209 209 208 207 204 200 201 204 207 208 208 208 207 209 211 213 216 218 219 221 222
161 178 144 110 259 268 359 343 302 304 302 280 264 257 237 212 211 221 231 223 215 222 233 233 234 241 255 280 291 286 287 291 291 294 299 300 301 301 294 286 283 280 272 257 241 232 226 222 220 220 219 217 217 218 218 217 213 208 203 200 199 200 203 205 208 210 210 208 206 203 201 202 205 207 208 209 209 209 210 212 215 217 219 220 222 224
162 153 179 170 217 265 296 331 322 303 284 270 240 195 184 180 196 217 237 226 210 209 218 229 242 255 268 271 268 277 289 298 302 302 302 301 300 303 305 299 290 283 278 266 251 240 233 228 226 227 226 223 221 220 219 217 214 210 205 201 201 202 204 205 208 211 211 209 206 204 204 206 208 210 212 212 213 213 214 215 217 219 221 222 223 225
168 160 177 167 184 260 315 359 327 267 241 268 301 275 231 217 215 233 254 246 219 211 222 236 249 253 256 261 263 271 286 299 304 303 303 311 311 309 314 312 297 283 283 276 260 247 237 230 227 225 223 223 223 220 219 218 216 213 210 207 206 206 206 206 209 212 212 210 207 207 208 209 212 214 216 217 217 218 218 219 220 222 224 225 226 227
160 161 176 167 172 267 336 82 237 270 294 302 302 295 200 175 188 234 276 263 225 211 218 230 242 247 250 261 265 271 287 301 304 300 308 333 338 334 333 329 305 274 289 296 278 263 249 237 232 228 221 219 219 219 219 218 216 215 212 210 209 208 207 207 209 212 213 211 209 209 211 212 214 217 218 219 220 221 221 221 222 224 226 227 229 230
154 150 166 206 205 208 226 222 258 312 316 306 297 181 135 156 158 142 308 277 227 206 209 218 235 245 246 254 265 275 290 310 312 303 330 352 355 359 1 356 341 235 207 197 281 273 264 251 241 234 227 221 216 214 214 213 213 213 211 209 208 208 208 209 210 212 212 211 210 211 213 215 217 219 219 220 221 222 223 223 225 226 227 229 231 232
165 169 169 203 226 144 181 269 299 315 294 276 269 257 198 172 173 153 346 296 258 214 199 204 221 234 236 247 264 277 304 358 336 301 344 4 5 11 15 14 19 54 132 161 173 174 198 232 231 229 229 226 221 216 212 210 210 210 209 209 208 208 209 210 211 211 211 211 212 213 215 217 220 221 222 222 223 224 225 226 227 228 229 231 233 234
107 45 144 186 232 131 148 232 236 243 249 245 269 284 292 171 183 140 12 298 279 223 186 188 208 223 224 230 231 171 72 39 310 284 339 11 9 16 22 23 24 30 76 110 148 167 168 182 198 211 221 224 225 221 216 214 213 212 212 211 210 211 211 211 211 212 212 213 215 217 218 220 222 224 225 226 226 227 228 230 231 231 232 234 236 237
97 56 151 200 223 190 172 220 239 247 250 258 269 271 310 347 157 73 346 275 262 210 184 185 203 220 215 210 193 149 109 128 269 290 335 358 3 15 23 28 32 27 36 84 124 168 177 185 191 200 211 215 217 219 219 219 218 218 219 217 217 217 217 216 217 217 217 218 219 221 223 224 225 226 228 230 230 231 233 234 235 235 236 237 238 238
134 220 195 205 221 206 201 233 267 264 247 252 251 240 253 357 355 350 258 251 244 202 189 191 206 217 207 193 184 190 210 208 247 315 330 339 347 0 6 14 29 29 25 40 63 136 180 195 194 195 202 203 205 211 216 219 221 224 225 225 225 226 224 224 225 225 224 225 225 226 228 229 231 232 234 236 237 237 237 238 238 238 239 240 239 238
165 188 192 197 211 202 206 236 282 286 262 245 235 221 200 6 304 227 229 265 266 216 200 201 213 218 212 206 206 214 228 221 284 314 327 329 326 331 336 342 360 9 13 28 34 43 72 152 182 185 192 198 204 208 211 216 221 224 225 227 230 231 230 229 230 230 230 231 231 232 233 235 237 238 240 242 242 241 241 240 240 241 241 241 240 240
168 163 181 194 184 163 183 207 231 271 256 181 162 162 175 193 224 233 241 283 278 229 212 211 216 218 221 222 222 229 240 255 292 310 321 323 321 320 315 313 325 335 339 353 5 17 47 45 113 172 189 198 206 211 213 218 222 222 224 228 229 227 226 225 225 227 229 230 231 233 235 237 239 241 243 245 246 245 245 243 242 242 241 241 240 240
172 169 178 194 183 168 182 200 212 247 199 156 149 150 200 206 216 241 321 306 299 249 222 220 222 221 223 226 231 238 244 259 288 302 306 312 318 316 305 298 301 305 306 310 313 317 335 343 228 193 210 212 214 218 221 225 227 228 230 231 227 224 224 223 223 224 226 228 230 232 234 237 239 242 244 246 247 246 246 245 244 243 242 241 241 240
190 187 190 203 202 193 199 211 221 240 219 195 204 225 219 215 225 240 254 274 286 267 237 231 232 231 229 234 239 243 249 263 279 291 300 304 305 306 303 296 288 285 287 291 289 286 293 296 274 251 243 234 231 232 234 236 236 238 241 236 228 227 228 226 225 226 226 228 230 232 234 236 239 241 243 245 245 246 245 245 244 243 243 243 242 242
199 195 194 197 209 223 240 242 243 252 246 230 232 238 238 234 236 241 249 258 262 262 255 245 244 245 244 245 246 247 255 267 276 282 290 295 296 297 297 294 288 279 275 273 270 270 273 273 272 274 270 263 257 249 245 244 243 247 256 248 236 235 234 232 232 232 232 232 233 234 236 237 238 240 242 243 245 246 246 246 246 246 245 245 244 244
214 201 203 204 195 217 235 228 229 237 240 239 242 244 246 250 251 250 254 259 261 261 258 253 255 257 253 252 253 253 257 266 274 279 282 286 289 290 291 291 288 277 268 263 258 256 256 260 269 276 277 278 276 271 265 259 254 255 257 249 241 239 237 236 236 236 236 237 237 237 238 239 239 241 242 242 243 244 245 245 245 246 245 245 244 244
198 188 200 219 218 229 240 226 228 238 240 241 246 247 247 251 255 256 259 262 264 264 261 259 260 261 261 262 262 260 261 265 271 277 280 281 282 285 286 288 285 275 266 259 253 248 247 253 263 269 272 276 278 276 275 272 270 268 259 250 246 242 239 238 238 238 239 239 239 240 240 241 241 242 242 243 243 244 244 244 244 244 245 246 246 246
165 167 183 207 216 238 255 250 247 256 256 248 247 248 248 250 254 257 261 264 265 265 264 263 263 262 261 263 265 266 267 267 270 274 277 279 279 279 278 282 286 281 268 257 252 251 251 254 258 260 264 270 271 270 270 272 273 270 263 256 251 246 242 241 239 239 240 239 239 240 240 241 242 242 243 244 244 245 246 247 248 249 250 251 252 252
169 182 180 196 218 236 245 237 232 244 254 242 243 248 251 252 255 257 259 262 264 265 266 268 268 265 262 262 266 267 267 268 270 271 274 277 279 276 272 275 280 282 276 260 249 250 258 261 259 257 259 263 265 264 265 265 266 266 262 259 254 249 246 244 241 240 240 239 238 238 238 239 240 241 242 244 245 246 248 249 250 252 253 255 256 257
203 207 192 208 232 240 243 235 226 230 243 246 248 253 255 254 253 254 256 259 262 265 268 269 269 268 267 267 268 266 265 267 270 270 273 277 278 276 273 270 271 277 278 263 247 252 265 268 262 257 257 258 260 263 263 261 261 260 259 257 254 251 249 247 244 242 241 239 238 238 238 240 241 242 243 245 246 247 249 250 251 252 253 255 256 256